Weather History for KBDH - April, 2013

Change the Weather History Date:

Friday, April 26, 2013

  Actual Average (KLJF) Record (KLJF)
Temperature  
Mean Temperature 54 °F -  
Max Temperature 69 °F 66 °F 89 °F (1962)
Min Temperature 39 °F 40 °F 25 °F (1976)
Degree Days  
Heating Degree Days 11    
Growing Degree Days 4 (Base 50)    
Moisture  
Dew Point 35 °F    
Average Humidity 52    
Maximum Humidity 87    
Minimum Humidity 17    
Precipitation  
Precipitation 0.00 in - - ()
Sea Level Pressure  
Sea Level Pressure 30.03 in    
Wind  
Wind Speed 10 mph (NNW)    
Max Wind Speed 18 mph    
Max Gust Speed 21 mph    
Visibility 10 miles    
Events      
Averages and records for this station are not official NWS values.
T = Trace of Precipitation, MM = Missing Value Source: NWS Daily Summary

Daily Weather History Graph

Daily Weather History Graph

Search for Another Location

Airport or City:

Trip Planner

Search our weather history database for the weather conditions in past years. The results will help you decide how hot, cold, wet, or windy it might be!

Date:

Astronomy

Apr. 26, 2013 Rise Set
Actual Time 6:16 AM CDT 8:20 PM CDT
Civil Twilight 5:44 AM CDT 8:52 PM CDT
Nautical Twilight 5:05 AM CDT 9:31 PM CDT
Astronomical Twilight 4:22 AM CDT 10:15 PM CDT
Moon 9:48 PM CDT (4/26) 6:42 AM CDT (4/26)
Length of Visible Light 15h 07m
Length of Day
14h 03m
Full, 99% of the Moon is Illuminated
Apr 26
Full
May 2
Last Quarter
May 9
New
May 17
First Quarter
May 24
Full

Hourly Weather History & Observations

Time (CDT) Temp. Windchill Dew Point Humidity Pressure Visibility Wind Dir Wind Speed Gust Speed Precip Events Conditions
12:16 AM 46.4 °F 39.2 °F 33.8 °F 62% 29.96 in 10.0 mi SE 18.4 mph - N/A   Clear
12:35 AM 44.6 °F 36.9 °F 33.8 °F 66% 29.95 in 10.0 mi SE 18.4 mph - N/A   Clear
12:55 AM 44.6 °F 37.4 °F 33.8 °F 66% 29.94 in 10.0 mi SE 16.1 mph - N/A   Scattered Clouds
1:16 AM 44.6 °F 37.4 °F 35.6 °F 71% 29.94 in 10.0 mi SE 16.1 mph - N/A   Scattered Clouds
1:35 AM 46.4 °F 40.4 °F 35.6 °F 66% 29.93 in 10.0 mi SE 13.8 mph - N/A   Scattered Clouds
2:16 AM 46.4 °F 41.9 °F 35.6 °F 66% 29.93 in 10.0 mi SE 9.2 mph - N/A   Scattered Clouds
2:35 AM 46.4 °F 43.5 °F 35.6 °F 66% 29.94 in 10.0 mi ESE 5.8 mph - N/A   Scattered Clouds
2:55 AM 44.6 °F 40.7 °F 35.6 °F 71% 29.93 in 10.0 mi East 6.9 mph - N/A   Clear
3:16 AM 44.6 °F 40.2 °F 35.6 °F 71% 29.93 in 10.0 mi East 8.1 mph - N/A   Clear
3:35 AM 44.6 °F 39.7 °F 35.6 °F 71% 29.92 in 10.0 mi ESE 9.2 mph - N/A   Clear
3:55 AM 42.8 °F 37.0 °F 35.6 °F 76% 29.91 in 10.0 mi ESE 10.4 mph - N/A   Clear
4:16 AM 44.6 °F 39.7 °F 35.6 °F 71% 29.91 in 10.0 mi SE 9.2 mph - N/A   Clear
4:35 AM 42.8 °F 38.0 °F 35.6 °F 76% 29.91 in 10.0 mi SE 8.1 mph - N/A   Clear
4:55 AM 42.8 °F 38.0 °F 35.6 °F 76% 29.91 in 10.0 mi SE 8.1 mph - N/A   Clear
5:16 AM 41.0 °F 35.8 °F 35.6 °F 81% 29.91 in 10.0 mi SE 8.1 mph - N/A   Clear
5:35 AM 39.2 °F 35.0 °F 33.8 °F 81% 29.91 in 10.0 mi SE 5.8 mph - N/A   Clear
5:55 AM 39.2 °F 35.0 °F 35.6 °F 87% 29.91 in 10.0 mi SE 5.8 mph - N/A   Clear
6:16 AM 39.2 °F 35.0 °F 33.8 °F 81% 29.92 in 10.0 mi SE 5.8 mph - N/A   Clear
6:35 AM 39.2 °F 35.9 °F 33.8 °F 81% 29.92 in 10.0 mi SE 4.6 mph - N/A   Clear
6:55 AM 39.2 °F 35.0 °F 35.6 °F 87% 29.93 in 10.0 mi SSE 5.8 mph - N/A   Clear
7:15 AM 39.2 °F 35.9 °F 35.6 °F 87% 29.94 in 10.0 mi South 4.6 mph - N/A   Clear
7:35 AM 42.8 °F - 37.4 °F 81% 29.94 in 10.0 mi Calm Calm - N/A   Clear
7:55 AM 46.4 °F 43.5 °F 37.4 °F 71% 29.95 in 10.0 mi SW 5.8 mph - N/A   Clear
8:15 AM 48.2 °F - 39.2 °F 71% 29.96 in 10.0 mi WSW 6.9 mph - N/A   Clear
8:35 AM 50.0 °F - 37.4 °F 62% 29.96 in 10.0 mi WSW 10.4 mph - N/A   Clear
8:55 AM 51.8 °F - 37.4 °F 58% 29.98 in 10.0 mi West 11.5 mph - N/A   Clear
9:15 AM 51.8 °F - 39.2 °F 62% 29.98 in 10.0 mi West 12.7 mph - N/A   Clear
9:35 AM 53.6 °F - 39.2 °F 58% 29.99 in 10.0 mi WNW 11.5 mph - N/A   Clear
9:55 AM 53.6 °F - 39.2 °F 58% 29.99 in 10.0 mi NW 13.8 mph - N/A   Clear
10:15 AM 55.4 °F - 41.0 °F 58% 30.01 in 10.0 mi NW 10.4 mph 17.3 mph N/A   Clear
10:35 AM 57.2 °F - 41.0 °F 55% 30.01 in 10.0 mi NW 13.8 mph - N/A   Clear
10:55 AM 57.2 °F - 42.8 °F 59% 30.02 in 10.0 mi NW 11.5 mph - N/A   Clear
11:15 AM 59.0 °F - 42.8 °F 55% 30.03 in 10.0 mi North 10.4 mph - N/A   Clear
11:35 AM 62.6 °F - 41.0 °F 45% 30.04 in 10.0 mi North 10.4 mph - N/A   Clear
11:55 AM 62.6 °F - 39.2 °F 42% 30.05 in 10.0 mi North 8.1 mph - N/A   Clear
12:15 PM 64.4 °F - 37.4 °F 37% 30.05 in 10.0 mi NNW 9.2 mph - N/A   Clear
12:35 PM 66.2 °F - 39.2 °F 37% 30.05 in 10.0 mi NW 4.6 mph - N/A   Clear
12:55 PM 66.2 °F - 44.6 °F 46% 30.05 in 10.0 mi West 10.4 mph - N/A   Clear
1:15 PM 66.2 °F - 46.4 °F 49% 30.05 in 10.0 mi West 8.1 mph - N/A   Clear
1:35 PM 66.2 °F - 44.6 °F 46% 30.05 in 10.0 mi WNW 11.5 mph - N/A   Clear
1:56 PM 66.2 °F - 46.4 °F 49% 30.06 in 10.0 mi West 15.0 mph 19.6 mph N/A   Clear
2:15 PM 66.2 °F - 44.6 °F 46% 30.06 in 10.0 mi WNW 12.7 mph 20.7 mph N/A   Clear
2:35 PM 66.2 °F - 42.8 °F 43% 30.06 in 10.0 mi NNW 10.4 mph - N/A   Clear
2:56 PM 68.0 °F - 42.8 °F 40% 30.07 in 10.0 mi NW 13.8 mph - N/A   Clear
3:15 PM 68.0 °F - 35.6 °F 30% 30.07 in 10.0 mi NNW 11.5 mph - N/A   Clear
3:35 PM 69.8 °F - 35.6 °F 28% 30.07 in 10.0 mi North 15.0 mph - N/A   Clear
3:56 PM 69.8 °F - 35.6 °F 28% 30.08 in 10.0 mi North 9.2 mph - N/A   Clear
4:15 PM 69.8 °F - 28.4 °F 21% 30.08 in 10.0 mi NNW 12.7 mph 18.4 mph N/A   Clear
4:35 PM 69.8 °F - 28.4 °F 21% 30.08 in 10.0 mi NNW 15.0 mph - N/A   Clear
4:56 PM 69.8 °F - 26.6 °F 20% 30.08 in 10.0 mi NNW 11.5 mph - N/A   Clear
5:15 PM 69.8 °F - 26.6 °F 20% 30.09 in 10.0 mi NNW 12.7 mph - N/A   Clear
5:35 PM 69.8 °F - 24.8 °F 18% 30.09 in 10.0 mi North 10.4 mph 16.1 mph N/A   Clear
5:55 PM 69.8 °F - 24.8 °F 18% 30.10 in 10.0 mi North 10.4 mph - N/A   Clear
6:15 PM 69.8 °F - 23.0 °F 17% 30.10 in 10.0 mi North 11.5 mph - N/A   Clear
6:35 PM 68.0 °F - 23.0 °F 18% 30.11 in 10.0 mi North 10.4 mph - N/A   Clear
6:55 PM 68.0 °F - 24.8 °F 20% 30.11 in 10.0 mi North 9.2 mph - N/A   Clear
7:15 PM 66.2 °F - 28.4 °F 24% 30.11 in 10.0 mi North 5.8 mph - N/A   Clear
7:36 PM 64.4 °F - 32.0 °F 30% 30.12 in 10.0 mi North 4.6 mph - N/A   Clear
7:55 PM 64.4 °F - 28.4 °F 26% 30.12 in 10.0 mi NNE 3.5 mph - N/A   Clear
8:15 PM 64.4 °F - 24.8 °F 22% 30.13 in 10.0 mi Calm Calm - N/A   Clear
8:35 PM 60.8 °F - 35.6 °F 39% 30.13 in 10.0 mi West 3.5 mph - N/A   Clear
8:55 PM 60.8 °F - 30.2 °F 31% 30.14 in 10.0 mi Calm Calm - N/A   Clear
9:15 PM 60.8 °F - 30.2 °F 31% 30.14 in 10.0 mi Calm Calm - N/A   Clear
9:35 PM 57.2 °F - 35.6 °F 44% 30.15 in 10.0 mi Calm Calm - N/A   Clear
9:55 PM 55.4 °F - 35.6 °F 47% 30.15 in 10.0 mi Calm Calm - N/A   Clear
10:15 PM 53.6 °F - 35.6 °F 51% 30.16 in 10.0 mi Calm Calm - N/A   Clear
10:35 PM 51.8 °F - 35.6 °F 54% 30.16 in 10.0 mi Calm Calm - N/A   Clear
10:55 PM 50.0 °F - 35.6 °F 58% 30.16 in 10.0 mi Calm Calm - N/A   Clear
11:16 PM 50.0 °F - 37.4 °F 62% 30.16 in 10.0 mi Calm Calm - N/A   Clear
11:35 PM 48.2 °F - 35.6 °F 62% 30.16 in 10.0 mi Calm Calm - N/A   Clear
11:55 PM 48.2 °F - 35.6 °F 62% 30.16 in 10.0 mi Calm Calm - N/A   Clear